Weather History for K08D - December, 2012

Change the Weather History Date:

Saturday, December 15, 2012

  Actual Average (KMOT) Record (KMOT)
Temperature  
Mean Temperature 15 °F 15 °F  
Max Temperature 24 °F 23 °F 56 °F (1939)
Min Temperature 6 °F 7 °F -28 °F (1917)
Degree Days  
Heating Degree Days 50 50  
Month to date heating degree days 713  
Since 1 July heating degree days 2771  
Moisture  
Dew Point 18 °F    
Average Humidity 99    
Maximum Humidity 100    
Minimum Humidity 92    
Precipitation  
Precipitation 0.00 in 0.01 in 0.18 in (1948)
Month to date precipitation 0.18  
Year to date precipitation 16.99  
Sea Level Pressure  
Sea Level Pressure 29.73 in    
Wind  
Wind Speed 7 mph (WNW)    
Max Wind Speed 18 mph    
Max Gust Speed 25 mph    
Visibility 8 miles    
Events Fog    
T = Trace of Precipitation, MM = Missing Value Source: NWS Daily Summary

Daily Weather History Graph

Daily Weather History Graph

Search for Another Location

Airport or City:

Trip Planner

Search our weather history database for the weather conditions in past years. The results will help you decide how hot, cold, wet, or windy it might be!

Date:

Astronomy

Dec. 15, 2012 Rise Set
Actual Time 8:34 AM CST 4:55 PM CST
Civil Twilight 7:57 AM CST 5:32 PM CST
Nautical Twilight 7:17 AM CST 6:12 PM CST
Astronomical Twilight 6:39 AM CST 6:50 PM CST
Moon 10:19 AM CST (12/15) 8:12 PM CST (12/15)
Length of Visible Light 9h 34m
Length of Day
8h 21m
Waxing Crescent, 8% of the Moon is Illuminated
Dec 15
Waxing Crescent
Dec 19
First Quarter
Dec 28
Full
Jan 4
Last Quarter
Jan 11
New

Hourly Weather History & Observations

Time (CST) Temp. Windchill Dew Point Humidity Pressure Visibility Wind Dir Wind Speed Gust Speed Precip Events Conditions
12:15 AM 14.0 °F 5.1 °F 14.0 °F 100% 29.66 in 10.0 mi WSW 5.8 mph - N/A   Clear
12:35 AM 15.8 °F - 15.8 °F 100% 29.67 in 10.0 mi Calm Calm - N/A   Clear
12:55 AM 14.0 °F - 14.0 °F 100% 29.67 in 10.0 mi Calm Calm - N/A   Clear
1:15 AM 8.6 °F 2.0 °F 6.8 °F 92% 29.67 in 10.0 mi West 3.5 mph - N/A   Clear
1:35 AM 6.8 °F - 5.0 °F 92% 29.68 in 10.0 mi Calm Calm - N/A   Clear
1:55 AM 6.8 °F -7.8 °F 5.0 °F 92% 29.68 in 10.0 mi SSW 10.4 mph - N/A   Clear
2:15 AM 6.8 °F -2.0 °F 5.0 °F 92% 29.68 in 10.0 mi West 4.6 mph - N/A   Clear
2:35 AM 12.2 °F 1.7 °F 10.4 °F 92% 29.68 in 10.0 mi SW 6.9 mph - N/A   Clear
2:55 AM 12.2 °F -1.0 °F 12.2 °F 100% 29.69 in 10.0 mi South 10.4 mph 19.6 mph N/A   Partly Cloudy
3:15 AM 14.0 °F -0.2 °F 14.0 °F 100% 29.69 in 10.0 mi SSW 12.7 mph 18.4 mph N/A   Mostly Cloudy
3:35 AM 14.0 °F - 14.0 °F 100% 29.70 in 10.0 mi North - - N/A   Overcast
3:55 AM 14.0 °F - 14.0 °F 100% 29.69 in 10.0 mi North - - N/A   Overcast
4:15 AM 14.0 °F -3.0 °F 14.0 °F 100% 29.69 in 10.0 mi South 18.4 mph 25.3 mph N/A   Overcast
4:35 AM 12.2 °F 2.9 °F 10.4 °F 92% 29.69 in 10.0 mi WNW 5.8 mph 19.6 mph N/A   Overcast
4:55 AM 12.2 °F 2.9 °F 12.2 °F 100% 29.68 in 10.0 mi West 5.8 mph - N/A   Overcast
5:15 AM 12.2 °F 2.9 °F 10.4 °F 92% 29.68 in 10.0 mi WNW 5.8 mph - N/A   Scattered Clouds
5:35 AM 10.4 °F 0.8 °F 10.4 °F 100% 29.69 in 10.0 mi WSW 5.8 mph - N/A   Clear
5:55 AM 12.2 °F 2.9 °F 10.4 °F 92% 29.69 in 10.0 mi West 5.8 mph - N/A   Mostly Cloudy
6:15 AM 15.8 °F 4.2 °F 15.8 °F 100% 29.70 in 10.0 mi WNW 9.2 mph - N/A   Overcast
6:35 AM 15.8 °F 2.7 °F 15.8 °F 100% 29.70 in 10.0 mi NW 11.5 mph 18.4 mph N/A   Overcast
6:55 AM 15.8 °F 5.1 °F 15.8 °F 100% 29.71 in 10.0 mi West 8.1 mph 19.6 mph N/A   Overcast
7:15 AM 14.0 °F 8.2 °F 14.0 °F 100% 29.72 in 10.0 mi WNW 3.5 mph - N/A   Mostly Cloudy
7:35 AM 14.0 °F 5.1 °F 14.0 °F 100% 29.72 in 10.0 mi NW 5.8 mph - N/A   Clear
7:55 AM 14.0 °F 2.9 °F 14.0 °F 100% 29.72 in 10.0 mi NW 8.1 mph - N/A   Clear
8:15 AM 14.0 °F 5.1 °F 14.0 °F 100% 29.72 in 10.0 mi NNW 5.8 mph - N/A   Clear
8:35 AM 14.0 °F 6.5 °F 14.0 °F 100% 29.73 in 10.0 mi NW 4.6 mph - N/A   Partly Cloudy
8:55 AM 14.0 °F 3.9 °F 14.0 °F 100% 29.73 in 10.0 mi NW 6.9 mph - N/A   Partly Cloudy
9:15 AM 14.0 °F 0.5 °F 14.0 °F 100% 29.74 in 10.0 mi NW 11.5 mph 16.1 mph N/A   Scattered Clouds
9:35 AM 15.8 °F 4.2 °F 15.8 °F 100% 29.75 in 0.5 mi NNW 9.2 mph - N/A Fog Light Freezing Fog
9:55 AM 17.6 °F 6.4 °F 17.6 °F 100% 29.74 in 0.2 mi NNW 9.2 mph - N/A Fog Light Freezing Fog
10:15 AM 17.6 °F 7.3 °F 17.6 °F 100% 29.74 in 0.2 mi NNW 8.1 mph - N/A Fog Light Freezing Fog
10:35 AM 19.4 °F 8.6 °F 19.4 °F 100% 29.75 in 3.0 mi NNW 9.2 mph - N/A   Overcast
10:55 AM 21.2 °F 10.1 °F 21.2 °F 100% 29.76 in 10.0 mi NW 10.4 mph - N/A   Overcast
11:15 AM 23.0 °F 13.9 °F 23.0 °F 100% 29.76 in 9.0 mi NNW 8.1 mph - N/A   Overcast
11:35 AM 23.0 °F 13.1 °F 23.0 °F 100% 29.76 in 3.0 mi NNW 9.2 mph - N/A   Overcast
11:55 AM 24.8 °F 16.1 °F 24.8 °F 100% 29.76 in 3.0 mi NNW 8.1 mph - N/A   Overcast
12:15 PM 24.8 °F 15.3 °F 24.8 °F 100% 29.75 in 1.2 mi NNW 9.2 mph - N/A   Overcast
12:35 PM 24.8 °F 14.6 °F 24.8 °F 100% 29.75 in 2.5 mi NNW 10.4 mph 17.3 mph N/A   Overcast
12:55 PM 24.8 °F 15.3 °F 24.8 °F 100% 29.74 in 8.0 mi NNW 9.2 mph - N/A   Overcast
1:15 PM 24.8 °F 14.0 °F 24.8 °F 100% 29.74 in 10.0 mi NW 11.5 mph 17.3 mph N/A   Overcast
1:35 PM 24.8 °F 14.6 °F 24.8 °F 100% 29.73 in 10.0 mi NW 10.4 mph - N/A   Overcast
1:55 PM 24.8 °F 14.6 °F 24.8 °F 100% 29.73 in 10.0 mi NW 10.4 mph 18.4 mph N/A   Overcast
2:15 PM 24.8 °F 14.6 °F 24.8 °F 100% 29.74 in 10.0 mi NW 10.4 mph 16.1 mph N/A   Overcast
2:35 PM 24.8 °F 16.1 °F 24.8 °F 100% 29.73 in 10.0 mi NW 8.1 mph - N/A   Overcast
2:55 PM 24.8 °F 14.0 °F 24.8 °F 100% 29.74 in 10.0 mi NW 11.5 mph - N/A   Overcast
3:15 PM 24.8 °F 15.3 °F 24.8 °F 100% 29.74 in 10.0 mi NW 9.2 mph - N/A   Overcast
3:35 PM 24.8 °F 15.3 °F 24.8 °F 100% 29.75 in 10.0 mi NNW 9.2 mph - N/A   Overcast
3:55 PM 24.8 °F 13.4 °F 24.8 °F 100% 29.75 in 10.0 mi NNW 12.7 mph - N/A   Overcast
4:15 PM 24.8 °F 13.4 °F 24.8 °F 100% 29.75 in 10.0 mi NW 12.7 mph - N/A   Overcast
4:35 PM 24.8 °F 16.1 °F 24.8 °F 100% 29.75 in 10.0 mi NW 8.1 mph 17.3 mph N/A   Overcast
4:55 PM 23.0 °F 13.9 °F 23.0 °F 100% 29.76 in 10.0 mi NNW 8.1 mph - N/A   Overcast
5:15 PM 23.0 °F 14.7 °F 23.0 °F 100% 29.76 in 10.0 mi NNW 6.9 mph - N/A   Overcast
5:35 PM 23.0 °F 13.1 °F 23.0 °F 100% 29.76 in 10.0 mi NW 9.2 mph - N/A   Overcast
5:55 PM 23.0 °F 13.1 °F 23.0 °F 100% 29.76 in 10.0 mi NW 9.2 mph - N/A   Overcast
6:15 PM 23.0 °F 18.4 °F 23.0 °F 100% 29.77 in 10.0 mi NW 3.5 mph - N/A   Overcast
6:35 PM 23.0 °F 14.7 °F 23.0 °F 100% 29.77 in 10.0 mi NW 6.9 mph - N/A   Overcast
6:55 PM 23.0 °F 15.8 °F 23.0 °F 100% 29.77 in 10.0 mi NW 5.8 mph - N/A   Overcast
7:15 PM 21.2 °F 12.6 °F 21.2 °F 100% 29.76 in 10.0 mi NW 6.9 mph - N/A   Overcast
7:35 PM 19.4 °F - 19.4 °F 100% 29.76 in 10.0 mi Calm Calm - N/A   Overcast
7:55 PM 19.4 °F 12.8 °F 19.4 °F 100% 29.77 in 10.0 mi WNW 4.6 mph - N/A   Overcast
8:15 PM 19.4 °F 10.4 °F 19.4 °F 100% 29.77 in 10.0 mi NW 6.9 mph - N/A   Overcast
8:35 PM 17.6 °F 10.7 °F 17.6 °F 100% 29.77 in 10.0 mi West 4.6 mph - N/A   Overcast
8:55 PM 19.4 °F 10.4 °F 19.4 °F 100% 29.77 in 5.0 mi West 6.9 mph - N/A   Overcast
9:15 PM 19.4 °F 10.4 °F 19.4 °F 100% 29.77 in 1.0 mi West 6.9 mph - N/A   Overcast
9:35 PM 17.6 °F 9.3 °F 17.6 °F 100% 29.77 in 0.5 mi West 5.8 mph - N/A Fog Light Freezing Fog
9:55 PM 17.6 °F 10.7 °F 17.6 °F 100% 29.77 in 0.5 mi West 4.6 mph - N/A Fog Light Freezing Fog
10:15 PM 17.6 °F 10.7 °F 17.6 °F 100% 29.77 in 0.5 mi WNW 4.6 mph - N/A Fog Light Freezing Fog
10:35 PM 17.6 °F 8.2 °F 17.6 °F 100% 29.77 in 0.5 mi West 6.9 mph - N/A Fog Light Freezing Fog
10:55 PM 17.6 °F 9.3 °F 17.6 °F 100% 29.77 in 0.2 mi West 5.8 mph - N/A Fog Light Freezing Fog
11:15 PM 17.6 °F 9.3 °F 17.6 °F 100% 29.77 in 0.2 mi WNW 5.8 mph - N/A Fog Light Freezing Fog
11:35 PM 17.6 °F 12.3 °F 17.6 °F 100% 29.77 in 0.2 mi West 3.5 mph - N/A Fog Light Freezing Fog
11:55 PM 17.6 °F 10.7 °F 17.6 °F 100% 29.77 in 0.2 mi NW 4.6 mph - N/A Fog Light Freezing Fog